timestamp,surface_pressure_avg,surface_temp_avg,battery_voltage,lat,long
2022-06-17 00:09:01+00:00,355.5046,10.6,12.09,47.84626,-54.09684
2022-06-17 00:19:01+00:00,365.1279,10.58,12.01,47.84626,-54.09684
2022-06-17 00:29:01+00:00,369.8746,10.58,12.01,47.84626,-54.09684
2022-06-17 00:39:01+00:00,368.0563,10.58,12.01,47.84626,-54.09684
2022-06-17 00:49:01+00:00,374.153,10.59,12.01,47.84626,-54.09684
2022-06-17 00:59:01+00:00,379.913,10.59,12.01,47.84626,-54.09684
2022-06-17 01:09:01+00:00,378.2363,10.6,12.01,47.84626,-54.09684
2022-06-17 01:19:00+00:00,379.6779,10.6,12.01,47.84626,-54.09684
2022-06-17 01:29:00+00:00,382.1129,10.6,12.01,47.84626,-54.09684
2022-06-17 01:39:00+00:00,383.0113,10.64,12.01,47.84626,-54.09684
2022-06-17 01:49:00+00:00,380.1896,10.67,12.01,47.84626,-54.09684
2022-06-17 01:59:00+00:00,379.3813,10.67,12.01,47.84626,-54.09684
2022-06-17 02:09:00+00:00,380.5496,10.65,12.01,47.84626,-54.09684
2022-06-17 02:19:01+00:00,377.6129,10.63,12.01,47.84626,-54.09684
2022-06-17 02:29:01+00:00,378.9479,10.64,12.01,47.84626,-54.09684
2022-06-17 02:39:01+00:00,380.5229,10.61,12.01,47.84626,-54.09684
2022-06-17 02:49:01+00:00,373.9014,10.62,12.01,47.84626,-54.09684
2022-06-17 02:59:01+00:00,368.4562,10.63,12.01,47.84626,-54.09684
2022-06-17 03:09:01+00:00,363.7762,10.64,12.01,47.84626,-54.09684
2022-06-17 03:19:01+00:00,355.56800000000015,10.64,12.01,47.84626,-54.09684
2022-06-17 03:29:01+00:00,349.1462,10.65,12.01,47.84626,-54.09684
2022-06-17 03:39:01+00:00,342.1846,10.65,12.01,47.84626,-54.09684
2022-06-17 03:49:01+00:00,333.9747,10.66,12.01,47.84626,-54.09684
2022-06-17 03:59:01+00:00,321.4564,10.65,12.01,47.84626,-54.09684
2022-06-17 04:09:01+00:00,311.418,10.64,12.01,47.84626,-54.09684
2022-06-17 04:19:01+00:00,304.463,10.65,12.01,47.84626,-54.09684
2022-06-17 04:29:01+00:00,297.4498,10.64,12.01,47.84626,-54.09684
2022-06-17 04:39:01+00:00,283.2214,10.65,12.01,47.84626,-54.09684
2022-06-17 04:49:01+00:00,269.1647,10.68,12.01,47.84626,-54.09684
2022-06-17 04:59:01+00:00,262.0031,10.69,12.01,47.84626,-54.09684
2022-06-17 05:09:01+00:00,254.3147,10.69,12.01,47.84626,-54.09684
2022-06-17 05:19:00+00:00,240.2781,10.69,12.01,47.84626,-54.09684
2022-06-17 05:29:00+00:00,227.6031,10.68,12.01,47.84626,-54.09684
2022-06-17 05:39:00+00:00,220.0714,10.68,12.01,47.84626,-54.09684
2022-06-17 05:49:00+00:00,210.5998,10.68,12.01,47.84626,-54.09684
2022-06-17 05:59:00+00:00,200.5665,10.68,12.01,47.84626,-54.09684
2022-06-17 06:09:00+00:00,196.1714,10.68,12.01,47.84626,-54.09684
2022-06-17 06:19:00+00:00,192.3248,10.68,12.01,47.84626,-54.09684
2022-06-17 06:29:00+00:00,184.0848,10.68,12.01,47.84626,-54.09684
2022-06-17 06:39:00+00:00,179.2914,10.69,12.01,47.84626,-54.09684
2022-06-17 06:49:00+00:00,178.7932,10.69,12.01,47.84626,-54.09684
2022-06-17 06:59:00+00:00,176.4748,10.68,12.01,47.84626,-54.09684
2022-06-17 07:09:00+00:00,172.5198,10.68,12.01,47.84626,-54.09684
2022-06-17 07:19:00+00:00,170.8948,10.69,12.01,47.84626,-54.09684
2022-06-17 07:29:00+00:00,174.6481,10.68,12.01,47.84626,-54.09684
2022-06-17 07:39:00+00:00,176.2865,10.67,12.01,47.84626,-54.09684
2022-06-17 07:49:00+00:00,171.8465,10.68,12.01,47.84626,-54.09684
2022-06-17 07:59:00+00:00,172.8998,10.69,12.01,47.84626,-54.09684
2022-06-17 08:09:00+00:00,176.0565,10.69,12.01,47.84626,-54.09684
2022-06-17 08:19:00+00:00,174.9932,10.69,11.93,47.84626,-54.09684
2022-06-17 08:29:00+00:00,182.2948,10.65,11.93,47.84626,-54.09684
2022-06-17 08:39:00+00:00,189.8715,10.66,11.93,47.84626,-54.09684
2022-06-17 08:49:00+00:00,187.7531,10.69,11.93,47.84626,-54.09684
2022-06-17 08:59:00+00:00,188.3264,10.7,11.93,47.84626,-54.09684
2022-06-17 09:09:00+00:00,192.6198,10.7,11.93,47.84626,-54.09684
2022-06-17 09:19:00+00:00,192.2198,10.7,12.01,47.84626,-54.09684
2022-06-17 09:29:00+00:00,186.7664,10.7,12.01,47.84626,-54.09684
2022-06-17 09:39:00+00:00,190.5148,10.7,12.01,47.84626,-54.09684
2022-06-17 09:49:00+00:00,197.6048,10.7,12.01,47.84626,-54.09684
2022-06-17 09:59:00+00:00,197.2247,10.7,12.01,47.84626,-54.09684
2022-06-17 10:09:00+00:00,201.3448,10.7,12.01,47.84626,-54.09684
2022-06-17 10:19:01+00:00,214.6331,10.7,12.01,47.84626,-54.09684
2022-06-17 10:29:01+00:00,223.2148,10.7,12.01,47.84626,-54.09684
2022-06-17 10:39:01+00:00,224.4998,10.7,12.01,47.84626,-54.09684
2022-06-17 10:49:01+00:00,231.7297,10.7,12.01,47.84626,-54.09684
2022-06-17 10:59:01+00:00,242.2314,10.7,12.01,47.84626,-54.09684
2022-06-17 11:09:01+00:00,242.7931,10.7,12.01,47.84626,-54.09684
2022-06-17 11:19:01+00:00,242.1798,10.7,12.09,47.84626,-54.09684
2022-06-17 11:29:01+00:00,252.8881,10.7,12.09,47.84626,-54.09684
2022-06-17 11:39:01+00:00,266.0964,10.7,12.09,47.84626,-54.09684
2022-06-17 11:49:01+00:00,270.3314,10.7,12.09,47.84626,-54.09684
2022-06-17 11:59:01+00:00,278.1214,10.7,12.09,47.84626,-54.09684
2022-06-17 12:09:01+00:00,290.863,10.7,12.09,47.84626,-54.09684
2022-06-17 12:19:00+00:00,296.488,10.7,12.25,47.84626,-54.09684
2022-06-17 12:29:00+00:00,300.2913,10.7,12.25,47.84626,-54.09684
2022-06-17 12:39:00+00:00,308.0497,10.7,12.25,47.84626,-54.09684
2022-06-17 12:49:00+00:00,316.0131,10.7,12.25,47.84626,-54.09684
2022-06-17 12:59:00+00:00,316.5664,10.7,12.25,47.84626,-54.09684
2022-06-17 13:09:00+00:00,318.5698,10.7,12.25,47.84626,-54.09684
2022-06-17 13:19:00+00:00,326.3413,10.7,12.33,47.84626,-54.09684
2022-06-17 13:29:00+00:00,329.7429,10.74,12.33,47.84626,-54.09684
2022-06-17 13:39:00+00:00,332.9495,10.75,12.33,47.84626,-54.09684
2022-06-17 13:49:00+00:00,336.418,10.78,12.33,47.84626,-54.09684
2022-06-17 13:59:00+00:00,341.3496,10.79,12.33,47.84626,-54.09684
2022-06-17 14:09:00+00:00,341.2095,10.8,12.33,47.84626,-54.09684
2022-06-17 14:19:00+00:00,339.2313,10.8,12.33,47.84626,-54.09684
2022-06-17 14:29:00+00:00,338.8114,10.82,12.33,47.84626,-54.09684
2022-06-17 14:39:00+00:00,333.9147,10.87,12.33,47.84626,-54.09684
2022-06-17 14:49:00+00:00,331.7213,10.9,12.33,47.84626,-54.09684
2022-06-17 14:59:00+00:00,330.5363,10.9,12.33,47.84626,-54.09684
2022-06-17 15:09:00+00:00,328.3413,10.9,12.33,47.84626,-54.09684
2022-06-17 15:19:01+00:00,323.6713,10.9,12.33,47.84626,-54.09684
2022-06-17 15:29:01+00:00,320.6779,10.9,12.33,47.84626,-54.09684
2022-06-17 15:39:01+00:00,319.7648,10.8,12.33,47.84626,-54.09684
2022-06-17 15:49:01+00:00,314.5381,10.8,12.33,47.84626,-54.09684
2022-06-17 15:59:01+00:00,308.1046,10.8,12.33,47.84626,-54.09684
2022-06-17 16:09:01+00:00,304.3981,10.8,12.33,47.84626,-54.09684
2022-06-17 16:19:00+00:00,300.6814,10.8,12.33,47.84626,-54.09684
2022-06-17 16:29:00+00:00,294.0748,10.8,12.33,47.84626,-54.09684
2022-06-17 16:39:00+00:00,285.0014,10.87,12.33,47.84626,-54.09684
2022-06-17 16:49:00+00:00,277.4898,10.9,12.33,47.84626,-54.09684
2022-06-17 16:59:00+00:00,270.7898,10.9,12.33,47.84626,-54.09684
2022-06-17 17:09:00+00:00,259.7414,10.95,12.33,47.84626,-54.09684
2022-06-17 17:19:00+00:00,247.3898,11.0,12.25,47.84626,-54.09684
2022-06-17 17:29:00+00:00,239.1164,11.0,12.25,47.84626,-54.09684
2022-06-17 17:39:00+00:00,229.1064,11.0,12.25,47.84626,-54.09684
2022-06-17 17:49:00+00:00,217.1265,11.0,12.25,47.84626,-54.09684
2022-06-17 17:59:00+00:00,208.3347,11.0,12.25,47.84626,-54.09684
2022-06-17 18:09:00+00:00,201.1831,11.0,12.25,47.84626,-54.09684
2022-06-17 18:19:00+00:00,191.9131,11.0,12.17,47.84626,-54.09684
2022-06-17 18:29:00+00:00,185.9498,11.06,12.17,47.84626,-54.09684
2022-06-17 18:39:00+00:00,184.3815,11.07,12.17,47.84626,-54.09684
2022-06-17 18:49:00+00:00,177.7498,11.09,12.17,47.84626,-54.09684
2022-06-17 18:59:00+00:00,174.9015,11.1,12.17,47.84626,-54.09684
2022-06-17 19:09:00+00:00,178.2315,11.1,12.17,47.84626,-54.09684
2022-06-17 19:19:00+00:00,173.1765,11.12,12.17,47.84626,-54.09684
2022-06-17 19:29:00+00:00,168.0015,11.2,12.17,47.84626,-54.09684
2022-06-17 19:39:00+00:00,176.0915,11.25,12.17,47.84626,-54.09684
2022-06-17 19:49:00+00:00,181.7665,11.27,12.17,47.84626,-54.09684
2022-06-17 19:59:00+00:00,177.7098,11.29,12.17,47.84626,-54.09684
2022-06-17 20:09:00+00:00,179.6982,11.3,12.17,47.84626,-54.09684
2022-06-17 20:19:01+00:00,187.7198,11.3,12.09,47.84626,-54.09684
2022-06-17 20:29:01+00:00,189.9781,11.29,12.09,47.84626,-54.09684
2022-06-17 20:39:01+00:00,190.0714,11.28,12.09,47.84626,-54.09684
2022-06-17 20:49:01+00:00,196.5215,11.2,12.09,47.84626,-54.09684
2022-06-17 20:59:01+00:00,202.0581,11.2,12.09,47.84626,-54.09684
2022-06-17 21:09:01+00:00,201.4798,11.19,12.09,47.84626,-54.09684
2022-06-17 21:19:00+00:00,204.4398,11.1,12.09,47.84626,-54.09684
2022-06-17 21:29:00+00:00,210.6881,11.1,12.09,47.84626,-54.09684
2022-06-17 21:39:00+00:00,213.1414,11.06,12.09,47.84626,-54.09684
2022-06-17 21:49:00+00:00,215.4915,11.0,12.09,47.84626,-54.09684
2022-06-17 21:59:00+00:00,223.7348,11.0,12.09,47.84626,-54.09684
2022-06-17 22:09:00+00:00,231.6347,10.96,12.09,47.84626,-54.09684
2022-06-17 22:19:01+00:00,233.2498,10.92,12.09,47.84626,-54.09684
2022-06-17 22:29:01+00:00,237.718,10.96,12.09,47.84626,-54.09684
2022-06-17 22:39:01+00:00,244.2464,10.99,12.09,47.84626,-54.09684
2022-06-17 22:49:01+00:00,247.2498,11.0,12.09,47.84626,-54.09684
2022-06-17 22:59:01+00:00,252.3981,11.0,12.09,47.84626,-54.09684
2022-06-17 23:09:01+00:00,261.4847,11.0,12.09,47.84626,-54.09684
2022-06-17 23:19:00+00:00,268.3114,11.0,12.09,47.84626,-54.09684
2022-06-17 23:29:00+00:00,272.2881,11.0,12.09,47.84626,-54.09684
2022-06-17 23:39:00+00:00,281.1748,11.0,12.09,47.84626,-54.09684
2022-06-17 23:49:00+00:00,291.8664,11.0,12.09,47.84626,-54.09684
2022-06-17 23:59:00+00:00,300.6364,11.0,12.09,47.84626,-54.09684
